| time (UTC) | temp F | wind direction | speed MPH | gust MPH | rain 1hr in | rain 24hr in | rain mn in | humidity % | barometer mb |
| 20260504080607 | 46 | 194 | 0.0 | 0.0 | 0.00 | 0.00 | 0.00 | 77 | 1009.5 |
| 20260504050309 | 47 | 225 | 0.0 | 1.0 | 0.00 | 0.00 | 0.00 | 72 | 1010.2 |
| 20260504044336 | 47 | 248 | 1.0 | 6.0 | 0.00 | 0.00 | 0.00 | 71 | 1010.2 |
| 20260504042210 | 47 | 259 | 1.0 | 5.0 | 0.00 | 0.00 | 0.00 | 67 | 1010.4 |
| 20260504041218 | 47 | 271 | 1.0 | 6.0 | 0.00 | 0.00 | 0.00 | 64 | 1010.5 |
| 20260504040145 | 47 | 278 | 1.0 | 6.0 | 0.00 | 0.00 | 0.00 | 61 | 1010.3 |
| 20260504035117 | 47 | 277 | 1.0 | 5.0 | 0.00 | 0.00 | 0.00 | 59 | 1010.3 |
| 20260504034121 | 47 | 255 | 1.0 | 4.0 | 0.00 | 0.00 | 0.00 | 58 | 1010.3 |
| 20260504033128 | 47 | 269 | 1.0 | 3.0 | 0.00 | 0.00 | 0.00 | 56 | 1010.3 |
| 20260504032117 | 47 | 269 | 0.0 | 3.0 | 0.00 | 0.00 | 0.00 | 54 | 1010.4 |
| 20260504031106 | 46 | 264 | 0.0 | 2.0 | 0.00 | 0.00 | 0.00 | 53 | 1010.2 |
| 20260504030053 | 46 | 264 | 0.0 | 0.0 | 0.00 | 0.00 | 0.00 | 54 | 1010.2 |
| 20260504025054 | 46 | 274 | 0.0 | 0.0 | 0.00 | 0.00 | 0.00 | 50 | 1010.3 |
| 20260504024030 | 45 | 259 | 0.0 | 0.0 | 0.00 | 0.00 | 0.00 | 51 | 1010.2 |
| 20260504023033 | 43 | 239 | 0.0 | 0.0 | 0.00 | 0.00 | 0.00 | 52 | 1010.1 |
| 20260504022011 | 43 | 239 | 0.0 | 0.0 | 0.00 | 0.00 | 0.00 | 52 | 1010.2 |
| 20260504020948 | 43 | 239 | 0.0 | 0.0 | 0.00 | 0.00 | 0.00 | 53 | 1010.2 |
| 20260504014823 | 44 | 239 | 0.0 | 0.0 | 0.00 | 0.00 | 0.00 | 50 | 1010.3 |
| 20260504013756 | 44 | 222 | 0.0 | 0.0 | 0.00 | 0.00 | 0.00 | 51 | 1010.4 |
| 20260504012734 | 45 | 222 | 0.0 | 0.0 | 0.00 | 0.00 | 0.00 | 48 | 1010.3 |
| 20260504011745 | 46 | 236 | 0.0 | 0.0 | 0.00 | 0.00 | 0.00 | 44 | 1010.1 |
| 20260504010810 | 46 | 259 | 0.0 | 0.0 | 0.00 | 0.00 | 0.00 | 44 | 1010.0 |
| 20260504003508 | 47 | 264 | 0.0 | 0.0 | 0.00 | 0.00 | 0.00 | 44 | 1009.5 |
| 20260504002529 | 47 | 243 | 0.0 | 1.0 | 0.00 | 0.00 | 0.00 | 43 | 1009.4 |
| 20260504001533 | 47 | 262 | 0.0 | 0.0 | 0.00 | 0.00 | 0.00 | 43 | 1009.3 |
| 20260503233045 | 50 | 237 | 0.0 | 0.0 | 0.00 | 0.00 | 0.00 | 46 | 1008.6 |
| 20260503230943 | 51 | 252 | 0.0 | 0.0 | 0.00 | 0.00 | 0.00 | 42 | 1008.4 |
| 20260503225945 | 51 | 257 | 0.0 | 0.0 | 0.00 | 0.00 | 0.00 | 42 | 1008.4 |
| 20260503224950 | 52 | 259 | 0.0 | 5.0 | 0.00 | 0.00 | 0.00 | 39 | 1008.3 |
| 20260503224001 | 52 | 268 | 0.0 | 0.0 | 0.00 | 0.00 | 0.00 | 39 | 1008.2 |
| 20260503223003 | 53 | 270 | 0.0 | 0.0 | 0.00 | 0.00 | 0.00 | 39 | 1008.3 |
| 20260503222012 | 53 | 308 | 0.0 | 4.0 | 0.00 | 0.00 | 0.00 | 40 | 1008.3 |
| 20260503214653 | 54 | 258 | 1.0 | 9.0 | 0.00 | 0.00 | 0.00 | 40 | 1008.2 |
| 20260503213654 | 54 | 78 | 0.0 | 2.0 | 0.00 | 0.00 | 0.00 | 39 | 1008.4 |
| 20260503212718 | 54 | 273 | 1.0 | 8.0 | 0.00 | 0.00 | 0.00 | 38 | 1008.4 |
| 20260503211722 | 55 | 306 | 1.0 | 7.0 | 0.00 | 0.00 | 0.00 | 39 | 1008.4 |
| 20260503210741 | 55 | 288 | 0.0 | 4.0 | 0.00 | 0.00 | 0.00 | 43 | 1008.4 |
| 20260503205727 | 54 | 304 | 1.0 | 5.0 | 0.00 | 0.00 | 0.00 | 41 | 1008.5 |
| 20260503203645 | 52 | 197 | 1.0 | 9.0 | 0.00 | 0.00 | 0.00 | 46 | 1008.6 |
| 20260503200409 | 51 | 269 | 1.0 | 8.0 | 0.00 | 0.00 | 0.00 | 46 | 1008.9 |
| 20260503195349 | 51 | 292 | 1.0 | 6.0 | 0.00 | 0.00 | 0.00 | 47 | 1008.8 |
| 20260503194350 | 51 | 314 | 2.0 | 11.0 | 0.00 | 0.00 | 0.00 | 46 | 1009.0 |
| 20260503193407 | 51 | 311 | 1.0 | 11.0 | 0.00 | 0.00 | 0.00 | 48 | 1009.0 |
| 20260503192425 | 51 | 341 | 1.0 | 3.0 | 0.00 | 0.00 | 0.00 | 48 | 1009.2 |
| 20260503191438 | 52 | 246 | 1.0 | 6.0 | 0.00 | 0.00 | 0.00 | 47 | 1009.3 |
| 20260503183109 | 50 | 61 | 1.0 | 6.0 | 0.00 | 0.00 | 0.00 | 50 | 1009.7 |
| 20260503182059 | 49 | 11 | 1.0 | 6.0 | 0.00 | 0.00 | 0.00 | 51 | 1009.8 |
| 20260503181117 | 49 | 293 | 1.0 | 6.0 | 0.00 | 0.00 | 0.00 | 50 | 1009.7 |
| 20260503180107 | 49 | 307 | 0.0 | 5.0 | 0.00 | 0.00 | 0.00 | 52 | 1009.8 |
| 20260503175033 | 49 | 286 | 0.0 | 3.0 | 0.00 | 0.00 | 0.00 | 53 | 1009.8 |
| 20260503174037 | 49 | 274 | 0.0 | 6.0 | 0.00 | 0.00 | 0.00 | 52 | 1009.8 |
| 20260503171936 | 48 | 288 | 0.0 | 5.0 | 0.00 | 0.00 | 0.00 | 49 | 1009.9 |
| 20260503170948 | 48 | 279 | 1.0 | 5.0 | 0.00 | 0.00 | 0.00 | 52 | 1009.9 |
| 20260503110726 | 39 | 263 | 0.0 | 0.0 | 0.00 | 0.00 | 0.00 | 89 | 1010.6 |
| 20260503090453 | 38 | 263 | 0.0 | 0.0 | 0.00 | 0.02 | 0.00 | 89 | 1010.3 |